FW4624 Weather Reports


time (UTC)temp
C
wind
direction
speed
KPH
gust
KPH
rain 1hr
cm
rain 24hr
cm
rain mn
cm
humidity
%
barometer
mb
20260508102547 15 341 3.2 9.7 0.00 0.03 0.03 64 1019.4
20260508102047 14 98 1.6 9.7 0.00 0.03 0.03 67 1019.4
20260508101548 15 98 1.6 9.7 0.00 0.03 0.03 66 1019.5
20260508101046 15 87 3.2 9.7 0.00 0.03 0.03 66 1019.5
20260508100545 15 196 1.6 6.4 0.00 0.03 0.03 70 1019.5
20260508100045 14 320 0.0 6.4 0.00 0.03 0.03 69 1019.5
20260508095545 14 320 0.0 6.4 0.00 0.03 0.03 68 1019.5
20260508095044 13 320 1.6 8.0 0.00 0.03 0.03 69 1019.5
20260508094544 14 319 4.8 8.0 0.00 0.03 0.03 68 1019.7
20260508094044 14 185 1.6 9.7 0.00 0.03 0.03 72 1019.6
20260508093543 13 188 1.6 9.7 0.00 0.03 0.03 71 1019.7
20260508093047 13 340 0.0 8.0 0.00 0.03 0.03 70 1019.8
20260508092543 13 340 0.0 8.0 0.00 0.03 0.03 73 1019.8
20260508092039 13 334 3.2 12.9 0.00 0.03 0.03 72 1019.8
20260508091549 12 348 4.8 12.9 0.00 0.03 0.03 72 1019.8
20260508091040 12 144 0.0 4.8 0.00 0.03 0.03 72 1019.8
20260508090538 12 144 0.0 4.8 0.00 0.03 0.03 76 1019.9
20260508090041 12 144 0.0 4.8 0.00 0.03 0.03 75 1019.9
20260508085537 12 144 1.6 4.8 0.00 0.03 0.03 74 1019.8
20260508085036 12 146 0.0 4.8 0.00 0.03 0.03 77 1019.9
20260508084536 12 146 0.0 6.4 0.00 0.03 0.03 77 1019.9
20260508084037 12 145 1.6 6.4 0.00 0.03 0.03 75 1019.9
20260508083534 12 146 0.0 4.8 0.00 0.03 0.03 80 1019.9
20260508083037 11 146 1.6 6.4 0.00 0.03 0.03 77 1020.0
20260508082536 12 145 3.2 6.4 0.00 0.03 0.03 77 1019.9
20260508082034 12 55 1.6 4.8 0.00 0.03 0.03 76 1020.1
20260508081534 11 53 0.0 6.4 0.00 0.03 0.03 76 1020.1
20260508081033 11 53 3.2 6.4 0.00 0.03 0.03 77 1020.0
20260508080533 11 55 1.6 6.4 0.00 0.03 0.03 78 1020.0
20260508080035 11 56 0.0 4.8 0.00 0.03 0.03 79 1020.0
20260508075533 11 5 1.6 4.8 0.00 0.03 0.03 80 1020.0
20260508075033 11 5 0.0 4.8 0.00 0.03 0.03 80 1020.1
20260508074544 11 5 1.6 4.8 0.00 0.03 0.03 82 1020.1
20260508074031 11 5 0.0 3.2 0.00 0.03 0.03 82 1020.0
20260508073534 11 5 0.0 4.8 0.00 0.03 0.03 82 1020.1
20260508073032 11 5 0.0 4.8 0.00 0.03 0.03 85 1020.1
20260508072527 10 5 0.0 3.2 0.00 0.03 0.03 85 1019.9
20260508072027 10 5 1.6 3.2 0.00 0.03 0.03 84 1020.0
20260508071531 10 5 0.0 3.2 0.00 0.03 0.03 87 1019.9
20260508071028 10 5 0.0 3.2 0.00 0.03 0.03 88 1019.8
20260508070524 9 5 0.0 3.2 0.00 0.03 0.03 89 1019.8
20260508070024 8 5 0.0 1.6 0.00 0.03 0.03 89 1019.7
20260508065523 8 5 0.0 1.6 0.00 0.03 0.03 90 1019.8
20260508065023 8 5 0.0 1.6 0.00 0.03 0.03 90 1019.8
20260508064523 8 5 0.0 3.2 0.00 0.03 0.03 90 1019.7
20260508064024 8 5 0.0 3.2 0.00 0.03 0.03 91 1019.7
20260508063522 8 5 0.0 3.2 0.00 0.03 0.03 91 1019.7
20260508063021 7 5 0.0 4.8 0.00 0.03 0.03 92 1019.6
20260508062521 7 5 1.6 4.8 0.00 0.03 0.03 92 1019.5
20260508062022 7 5 0.0 4.8 0.00 0.03 0.03 92 1019.5
20260508061522 7 5 1.6 4.8 0.00 0.03 0.03 92 1019.6
20260508061020 7 5 0.0 3.2 0.00 0.03 0.03 92 1019.4
20260508060520 7 5 1.6 4.8 0.00 0.03 0.03 92 1019.3
20260508060019 7 5 1.6 4.8 0.00 0.03 0.03 92 1019.4
20260508055521 7 5 1.6 4.8 0.00 0.03 0.03 92 1019.3
20260508055019 6 5 1.6 4.8 0.00 0.03 0.03 92 1019.3
20260508054519 7 5 0.0 6.4 0.00 0.03 0.03 93 1019.3
20260508054018 6 5 3.2 6.4 0.00 0.03 0.03 93 1019.3
20260508053517 6 5 0.0 4.8 0.00 0.03 0.03 93 1019.3
20260508053017 6 5 0.0 3.2 0.00 0.03 0.03 93 1019.2
20260508052516 6 5 0.0 3.2 0.00 0.03 0.03 93 1019.1
20260508052016 6 5 0.0 4.8 0.00 0.03 0.03 93 1019.1
20260508051516 6 5 0.0 4.8 0.00 0.03 0.03 93 1019.1
20260508051015 6 5 0.0 3.2 0.00 0.03 0.03 93 1019.0
20260508050515 6 5 0.0 4.8 0.00 0.03 0.03 93 1019.0
20260508050014 6 5 0.0 4.8 0.00 0.03 0.03 93 1019.0
20260508045521 6 13 1.6 3.2 0.00 0.03 0.03 93 1019.0
20260508045013 6 360 0.0 0.0 0.00 0.03 0.03 93 1018.8
20260508044513 6 360 0.0 0.0 0.00 0.03 0.03 93 1018.9
20260508044012 6 360 0.0 0.0 0.00 0.03 0.03 93 1018.9
20260508043523 6 360 0.0 0.0 0.00 0.03 0.03 93 1018.7
20260508043012 6 360 0.0 0.0 0.03 0.03 0.03 93 1018.8
20260508042515 6 360 0.0 0.0 0.03 0.03 0.03 93 1018.8
20260508042012 6 360 0.0 0.0 0.03 0.03 0.03 93 1018.8
20260508041511 6 360 0.0 0.0 0.03 0.03 0.03 93 1018.8
20260508041011 5 360 0.0 0.0 0.03 0.03 0.03 93 1018.8
20260508040516 5 360 0.0 0.0 0.03 0.03 0.03 93 1018.8
20260508040012 5 360 0.0 0.0 0.03 0.03 0.03 94 1018.7
20260508035510 5 360 0.0 0.0 0.03 0.03 0.03 93 1018.8
20260508035012 5 360 0.0 0.0 0.03 0.03 0.03 93 1018.8
20260508034510 5 360 0.0 0.0 0.03 0.03 0.03 93 1018.7
20260508034010 5 360 0.0 0.0 0.03 0.03 0.03 93 1018.7
20260508033514 5 360 0.0 0.0 0.03 0.03 0.03 93 1018.6
20260508033010 5 360 0.0 0.0 0.00 0.00 0.00 93 1018.6
20260508032509 5 360 0.0 0.0 0.00 0.00 0.00 93 1018.6
20260508032012 5 360 0.0 0.0 0.00 0.00 0.00 93 1018.6
20260508031508 4 360 0.0 0.0 0.00 0.00 0.00 93 1018.5
20260508031008 4 360 0.0 0.0 0.00 0.00 0.00 93 1018.5
20260508030508 5 360 0.0 0.0 0.00 0.00 0.00 93 1018.5
20260508030008 5 360 0.0 0.0 0.00 0.00 0.00 93 1018.5
20260508025607 5 360 0.0 0.0 0.00 0.00 0.00 93 1018.5
20260508025008 5 360 0.0 0.0 0.00 0.00 0.00 93 1018.4
20260508024507 5 360 0.0 0.0 0.00 0.00 0.00 93 1018.4
20260508024004 5 360 0.0 0.0 0.00 0.00 0.00 93 1018.5
20260508023504 5 360 0.0 0.0 0.00 0.00 0.00 93 1018.5
20260508023003 5 360 0.0 0.0 0.00 0.00 0.00 93 1018.6
20260508022503 5 360 0.0 0.0 0.00 0.00 0.00 93 1018.6
20260508022003 5 360 0.0 0.0 0.00 0.00 0.00 93 1018.6
20260508021502 5 360 0.0 0.0 0.00 0.00 0.00 93 1018.5
20260508021002 5 360 0.0 0.0 0.00 0.00 0.00 93 1018.6
20260508020502 5 360 0.0 0.0 0.00 0.00 0.00 92 1018.5
20260508020002 5 360 0.0 0.0 0.00 0.00 0.00 93 1018.6
20260508015502 5 360 0.0 0.0 0.00 0.00 0.00 92 1018.6
20260508015002 5 360 0.0 0.0 0.00 0.00 0.00 93 1018.5
20260508014601 5 360 0.0 0.0 0.00 0.00 0.00 92 1018.6
20260508014102 6 360 0.0 0.0 0.00 0.00 0.00 92 1018.6
20260508013600 6 360 0.0 0.0 0.00 0.00 0.00 92 1018.4
20260508013058 6 360 0.0 0.0 0.00 0.00 0.00 92 1018.6
20260508012557 6 360 0.0 0.0 0.00 0.00 0.00 92 1018.6
20260508012057 6 360 0.0 1.6 0.00 0.00 0.00 92 1018.6
20260508011557 6 360 0.0 1.6 0.00 0.00 0.00 92 1018.6
20260508011056 6 360 0.0 1.6 0.00 0.00 0.00 92 1018.6
20260508010557 6 360 0.0 0.0 0.00 0.00 0.00 92 1018.6
20260508010056 6 360 0.0 0.0 0.00 0.00 0.00 92 1018.6
20260508005556 6 360 0.0 1.6 0.00 0.00 0.00 92 1018.5
20260508005057 6 360 0.0 3.2 0.00 0.00 0.00 92 1018.5
20260508004609 6 360 1.6 3.2 0.00 0.00 0.00 92 1018.5
20260508004053 6 360 0.0 3.2 0.00 0.00 0.00 92 1018.6
20260508003552 6 360 1.6 3.2 0.00 0.00 0.00 92 1018.6
20260508003052 6 360 0.0 3.2 0.00 0.00 0.00 91 1018.6
20260508002550 6 360 0.0 1.6 0.00 0.00 0.00 91 1018.5
20260508002049 7 360 0.0 1.6 0.00 0.00 0.00 91 1018.6
20260508001548 7 360 0.0 3.2 0.00 0.00 0.00 91 1018.6
20260508001048 7 360 1.6 4.8 0.00 0.00 0.00 91 1018.6
20260508000548 7 360 1.6 4.8 0.00 0.00 0.00 91 1018.6
20260508000048 7 360 1.6 6.4 0.00 0.00 0.00 90 1018.6
20260507235545 7 11 3.2 4.8 0.00 0.00 0.00 90 1018.6
20260507235045 7 11 1.6 4.8 0.00 0.00 0.00 90 1018.7
20260507234544 7 10 0.0 4.8 0.00 0.00 0.00 90 1018.7
20260507234042 8 10 1.6 4.8 0.00 0.00 0.00 90 1018.6
20260507233545 8 10 0.0 4.8 0.00 0.00 0.00 89 1018.6
20260507233041 8 10 1.6 4.8 0.00 0.00 0.00 89 1018.6
20260507232539 8 10 1.6 4.8 0.00 0.00 0.00 89 1018.6
20260507232038 8 10 1.6 4.8 0.00 0.00 0.00 88 1018.6
20260507231543 8 12 0.0 4.8 0.00 0.00 0.00 88 1018.6
20260507231037 8 13 1.6 4.8 0.00 0.00 0.00 88 1018.7
20260507230537 8 13 1.6 4.8 0.00 0.00 0.00 88 1018.7
20260507230036 8 360 0.0 6.4 0.00 0.00 0.00 87 1018.7
20260507225535 9 360 1.6 6.4 0.00 0.00 0.00 87 1018.7
20260507225035 9 360 3.2 6.4 0.00 0.00 0.00 87 1018.6
20260507224536 9 9 1.6 4.8 0.00 0.00 0.00 87 1018.7
20260507224038 9 10 1.6 6.4 0.00 0.00 0.00 87 1018.7
20260507223534 9 11 3.2 6.4 0.00 0.00 0.00 87 1018.8
20260507223033 9 5 1.6 6.4 0.00 0.00 0.00 88 1018.7
20260507222533 9 5 3.2 6.4 0.00 0.00 0.00 88 1018.7
20260507222034 9 9 3.2 6.4 0.00 0.00 0.00 87 1018.7
20260507221533 9 5 3.2 6.4 0.00 0.00 0.00 87 1018.6
20260507221030 9 5 1.6 6.4 0.00 0.00 0.00 87 1018.6
20260507220530 10 5 3.2 6.4 0.00 0.00 0.00 87 1018.5
20260507220029 10 5 1.6 4.8 0.00 0.00 0.00 87 1018.5
20260507215529 10 5 1.6 4.8 0.00 0.00 0.00 87 1018.5
20260507215027 10 5 1.6 4.8 0.00 0.00 0.00 87 1018.4
20260507214530 10 5 1.6 4.8 0.00 0.00 0.00 87 1018.3
20260507214027 10 5 1.6 4.8 0.00 0.00 0.00 87 1018.3
20260507213529 10 5 1.6 6.4 0.00 0.00 0.00 87 1018.4
20260507213027 10 5 3.2 6.4 0.00 0.00 0.00 87 1018.2
20260507212526 10 9 3.2 4.8 0.00 0.00 0.00 87 1018.2
20260507212026 10 360 1.6 4.8 0.00 0.00 0.00 86 1018.1
20260507211526 10 360 1.6 6.4 0.00 0.00 0.00 86 1018.1
20260507211026 10 360 1.6 6.4 0.00 0.00 0.00 86 1018.1
20260507210525 10 5 1.6 8.0 0.00 0.00 0.00 86 1018.1
20260507210038 10 5 1.6 8.0 0.00 0.00 0.00 86 1018.1
20260507205525 10 5 1.6 6.4 0.00 0.00 0.00 86 1018.1
20260507205024 10 5 1.6 6.4 0.00 0.00 0.00 86 1018.1
20260507204525 10 5 1.6 6.4 0.00 0.00 0.00 86 1018.0
20260507204027 10 5 1.6 6.4 0.00 0.00 0.00 86 1018.1
20260507203524 10 360 3.2 8.0 0.00 0.00 0.00 86 1018.0
20260507203022 10 345 3.2 8.0 0.00 0.00 0.00 86 1017.9
20260507202523 10 5 3.2 6.4 0.00 0.00 0.00 86 1017.9
20260507202023 10 5 3.2 6.4 0.00 0.00 0.00 86 1017.9
20260507201523 10 10 1.6 6.4 0.00 0.00 0.00 86 1017.8
20260507201022 10 10 1.6 6.4 0.00 0.00 0.00 86 1017.8
20260507200522 10 19 3.2 6.4 0.00 0.00 0.00 86 1017.8
20260507200021 11 19 1.6 8.0 0.00 0.00 0.00 86 1017.8
20260507195521 11 20 3.2 8.0 0.00 0.00 0.00 86 1017.8
20260507195021 11 355 1.6 4.8 0.00 0.00 0.00 85 1017.8
20260507194521 11 355 1.6 8.0 0.00 0.00 0.00 85 1017.7
20260507194021 11 12 1.6 8.0 0.00 0.00 0.00 85 1017.7
20260507193519 11 13 3.2 8.0 0.00 0.00 0.00 85 1017.6
20260507193019 11 28 1.6 4.8 0.00 0.00 0.00 85 1017.5
20260507192519 11 28 1.6 6.4 0.00 0.00 0.00 84 1017.4
20260507192021 11 28 1.6 8.0 0.00 0.00 0.00 84 1017.3
20260507191519 11 18 3.2 8.0 0.00 0.00 0.00 84 1017.3
20260507191017 11 49 1.6 6.4 0.00 0.00 0.00 84 1017.2
20260507190518 11 49 0.0 6.4 0.00 0.00 0.00 84 1017.2
20260507190017 11 49 1.6 8.0 0.00 0.00 0.00 83 1017.1
20260507185516 11 53 3.2 8.0 0.00 0.03 0.00 83 1017.1
20260507185020 11 52 1.6 6.4 0.00 0.03 0.00 84 1017.1
20260507184518 11 51 0.0 6.4 0.00 0.03 0.00 84 1016.9
20260507184016 12 51 1.6 4.8 0.00 0.03 0.00 83 1016.9
20260507183514 12 51 1.6 4.8 0.00 0.03 0.00 83 1016.9
20260507183014 12 51 0.0 6.4 0.00 0.03 0.00 82 1016.9
20260507182514 12 51 1.6 6.4 0.00 0.03 0.00 82 1016.8
20260507182014 12 49 1.6 6.4 0.00 0.03 0.00 80 1016.8
20260507181513 12 84 1.6 6.4 0.00 0.03 0.00 80 1016.7
20260507181015 12 88 0.0 4.8 0.00 0.03 0.00 79 1016.7
20260507180514 12 88 0.0 4.8 0.00 0.03 0.00 79 1016.7
20260507180013 12 88 0.0 4.8 0.00 0.03 0.00 80 1016.7
20260507175513 12 88 0.0 4.8 0.00 0.05 0.00 80 1016.8
20260507175014 12 88 1.6 4.8 0.00 0.05 0.00 79 1016.7
20260507174513 12 88 0.0 4.8 0.00 0.05 0.00 80 1016.6
20260507174013 12 88 0.0 3.2 0.00 0.05 0.00 80 1016.6
20260507173514 12 88 0.0 4.8 0.00 0.05 0.00 80 1016.6
20260507173011 12 88 0.0 4.8 0.00 0.05 0.00 79 1016.6
20260507172510 12 88 0.0 1.6 0.00 0.05 0.00 81 1016.5
20260507172010 12 88 0.0 1.6 0.00 0.05 0.00 81 1016.5
20260507171510 12 88 0.0 3.2 0.00 0.05 0.00 83 1016.4
20260507171010 12 88 0.0 4.8 0.00 0.05 0.00 83 1016.5
20260507170510 12 88 1.6 4.8 0.00 0.05 0.00 84 1016.5
20260507170012 12 88 1.6 4.8 0.00 0.05 0.00 84 1016.4
20260507165509 12 86 1.6 4.8 0.00 0.05 0.00 83 1016.3
20260507165009 12 85 1.6 3.2 0.00 0.05 0.00 83 1016.3
20260507164509 12 85 1.6 3.2 0.00 0.05 0.00 83 1016.4
20260507164009 12 85 0.0 3.2 0.00 0.05 0.00 83 1016.3
20260507163508 12 85 0.0 0.0 0.00 0.05 0.00 83 1016.3
20260507163008 12 85 0.0 1.6 0.00 0.05 0.00 84 1016.2
20260507162509 12 85 0.0 3.2 0.00 0.05 0.00 83 1016.3
20260507162007 12 85 0.0 4.8 0.00 0.05 0.00 82 1016.3
20260507161507 12 85 1.6 4.8 0.00 0.05 0.00 82 1016.3
20260507161008 12 85 0.0 3.2 0.00 0.05 0.00 80 1016.3
20260507160509 12 85 0.0 3.2 0.00 0.05 0.00 79 1016.1
20260507160007 12 85 0.0 1.6 0.00 0.05 0.00 80 1016.1
20260507155510 12 85 0.0 3.2 0.00 0.05 0.00 79 1016.1
20260507155006 12 85 1.6 3.2 0.00 0.05 0.00 77 1016.1
20260507154509 12 85 0.0 3.2 0.00 0.05 0.00 78 1016.1
20260507154008 12 85 0.0 3.2 0.00 0.05 0.00 77 1016.1
20260507153505 12 85 0.0 3.2 0.00 0.05 0.00 77 1016.0
20260507153008 12 85 0.0 4.8 0.00 0.05 0.00 77 1016.0
20260507152506 12 85 1.6 4.8 0.00 0.05 0.00 77 1016.0
20260507152006 12 85 0.0 4.8 0.00 0.05 0.00 76 1016.1
20260507151505 13 85 1.6 4.8 0.00 0.05 0.00 77 1016.1
20260507151003 13 85 0.0 4.8 0.00 0.05 0.00 78 1016.1
20260507150504 13 85 1.6 6.4 0.00 0.05 0.00 77 1015.9
20260507150004 13 85 1.6 6.4 0.00 0.05 0.00 76 1016.0
20260507145504 13 85 1.6 6.4 0.00 0.33 0.00 75 1015.9
20260507145005 13 82 3.2 6.4 0.00 0.33 0.00 76 1015.9
20260507144506 13 82 1.6 6.4 0.00 0.33 0.00 77 1015.8
20260507144003 12 82 1.6 6.4 0.00 0.33 0.00 77 1015.9
20260507143504 12 82 1.6 8.0 0.00 0.33 0.00 77 1015.8
20260507143004 12 82 1.6 8.0 0.00 0.33 0.00 77 1015.8
20260507142503 12 78 1.6 8.0 0.00 0.33 0.00 77 1015.8
20260507142002 12 34 3.2 9.7 0.00 0.33 0.00 77 1015.9
20260507141501 13 92 3.2 6.4 0.00 0.33 0.00 77 1015.8
20260507141002 13 162 3.2 8.0 0.00 0.33 0.00 77 1015.8
20260507140504 13 165 1.6 4.8 0.00 0.33 0.00 77 1015.8
20260507140006 13 165 1.6 3.2 0.00 0.33 0.00 77 1015.7
20260507135502 13 165 0.0 3.2 0.00 0.33 0.00 78 1015.7
20260507135001 13 165 0.0 3.2 0.00 0.33 0.00 79 1015.8
20260507134602 13 165 0.0 3.2 0.00 0.33 0.00 81 1015.7
20260507134101 12 165 0.0 3.2 0.00 0.33 0.00 79 1015.7
20260507133559 12 165 1.6 3.2 0.00 0.33 0.00 78 1015.6
20260507133108 12 165 0.0 3.2 0.00 0.33 0.00 78 1015.6
20260507132558 12 165 0.0 1.6 0.00 0.33 0.00 78 1015.6
20260507132058 12 165 0.0 3.2 0.00 0.33 0.00 79 1015.6
20260507131612 12 165 0.0 3.2 0.00 0.33 0.00 78 1015.5
20260507131057 13 165 0.0 8.0 0.00 0.33 0.00 76 1015.4
20260507130556 12 165 1.6 11.3 0.00 0.33 0.00 77 1015.4
20260507130056 13 168 4.8 11.3 0.00 0.33 0.00 79 1015.4
20260507125556 13 96 1.6 3.2 0.00 0.33 0.00 78 1015.3
20260507125055 13 96 0.0 6.4 0.00 0.33 0.00 78 1015.4
20260507124557 12 96 1.6 6.4 0.00 0.33 0.00 79 1015.4
20260507124055 12 96 0.0 4.8 0.00 0.33 0.00 79 1015.3
20260507123555 12 96 3.2 6.4 0.00 0.33 0.00 78 1015.3
20260507123054 12 96 1.6 6.4 0.00 0.33 0.00 77 1015.3
20260507122553 12 96 1.6 6.4 0.00 0.33 0.00 79 1015.2
20260507122053 12 96 3.2 6.4 0.00 0.33 0.00 78 1015.1
20260507121553 12 94 1.6 9.7 0.00 0.33 0.00 78 1015.1
20260507121053 12 94 3.2 9.7 0.00 0.33 0.00 77 1015.1
20260507120553 13 94 3.2 9.7 0.00 0.33 0.00 75 1015.1
20260507120053 13 14 1.6 6.4 0.00 0.33 0.00 75 1015.0
20260507115553 13 81 1.6 9.7 0.00 0.33 0.00 74 1015.1
20260507115052 13 78 1.6 12.9 0.00 0.33 0.00 74 1015.1
20260507114553 13 355 3.2 12.9 0.00 0.33 0.00 74 1015.1
20260507114052 13 320 3.2 9.7 0.00 0.33 0.00 73 1015.0
20260507113551 13 46 3.2 9.7 0.00 0.33 0.00 72 1015.0
20260507113053 13 13 3.2 9.7 0.00 0.33 0.00 72 1015.1
20260507112553 13 72 3.2 9.7 0.00 0.33 0.00 73 1015.0
20260507112053 13 336 4.8 9.7 0.00 0.33 0.00 73 1015.0
20260507111550 13 343 3.2 9.7 0.00 0.33 0.00 75 1015.0
20260507111051 13 347 3.2 14.5 0.00 0.33 0.00 75 1015.0
20260507110548 13 355 4.8 14.5 0.00 0.33 0.00 75 1015.0
20260507110049 13 341 4.8 9.7 0.00 0.33 0.00 74 1014.9
20260507105547 13 344 4.8 9.7 0.00 0.33 0.00 76 1014.9
20260507105047 13 344 3.2 12.9 0.00 0.33 0.00 77 1015.0
20260507104548 12 30 4.8 12.9 0.00 0.33 0.00 76 1015.1
20260507104047 13 336 4.8 9.7 0.00 0.33 0.00 78 1015.1
20260507103544 12 355 4.8 9.7 0.00 0.33 0.00 78 1015.0
20260507103044 12 348 4.8 12.9 0.00 0.33 0.00 79 1015.1